Regional Weather Roundup
Issued by NWS Portland, ME

Current Version | Previous Version | Text Only | Print | Product List | Glossary Off
Versions: 1 2 3 4 5 6 7 8 9 10 11 12 13 14 15 16 17 18 19 20 21 22 23 24 25 26 27 28 29 30 31 32 33 34 35 36 37 38 39 40 41 42 43 44 45 46 47 48 49 50
773 ASUS41 KGYX 240410 RWRGYX WEATHER ROUNDUP FOR MAINE AND NEW HAMPSHIRE NATIONAL WEATHER SERVICE GRAY ME 1200 AM EDT WED MAY 24 2017 MEZ002-005-006-010-012-015-018-020-021-024-026-027-029-240500- MAINE CITY SKY/WX TMP DP RH WIND PRES REMARKS PORTLAND PTCLDY 53 49 86 SW3 29.81F SANFORD CLOUDY 48 47 96 CALM 29.82S BAR HARBOR PTCLDY 47 46 97 CALM 29.81R WISCASSET MOCLDY 50 48 93 CALM 29.82S ROCKLAND CLOUDY 49 47 93 W7 29.80S FRYEBURG CLOUDY 49 48 97 CALM 29.83R LEWISTONAUBURN CLOUDY 53 51 93 CALM 29.82R AUGUSTA PTCLDY 56 51 84 CALM 29.81S WATERVILLE CLOUDY 52 48 86 CALM 29.79R BANGOR CLOUDY 50 49 96 CALM 29.80R GREENVILLE N/A 52 44 74 NW5 29.80R MILLINOCKET CLEAR 48 47 96 CALM 29.80R HOULTON CLEAR 44 43 96 CALM 29.77S PRESQUE ISLE CLEAR 45 43 93 CALM 29.77S FRENCHVILLE CLOUDY 53 42 66 W10 29.75F CARIBOU CLEAR 49 42 77 W3 29.75F $$ NHZ002-005-008-009-011-012-014-240500- NEW HAMPSHIRE CITY SKY/WX TMP DP RH WIND PRES REMARKS PORTSMOUTH CLOUDY 53 51 94 CALM 29.80S ROCHESTER CLOUDY 54 50 86 NW3 29.81S NASHUA CLOUDY 55 53 93 CALM 29.82F MANCHESTER CLOUDY 59 51 75 CALM 29.80F CONCORD CLOUDY 53 51 93 NE3 29.83R LACONIA CLOUDY 54 51 90 CALM 29.83R PLYMOUTH FAIR 50 49 96 CALM 29.83R BERLIN CLOUDY 50 45 83 CALM 29.85R WHITEFIELD CLOUDY 52 47 83 CALM 29.84R JAFFREY CLOUDY 51 51 100 CALM 29.84F KEENE CLOUDY 52 51 97 CALM 29.83F LEBANON CLOUDY 52 50 93 CALM 29.82S MT WASHINGTON FOG 37 37 100 NW23 N/A VSB 1/8 $$ VTZ005-007-008-240500- VERMONT CITY SKY/WX TMP DP RH WIND PRES REMARKS ST JOHNSBURY N/A 54 50 86 MISG 29.82R MONTPELIER CLOUDY 51 49 92 CALM 29.87R BURLINGTON CLOUDY 58 54 86 CALM 29.81R $$ MAZ007-012-024-CTZ003-RIZ002-NYZ038-NYZ072-240500- SOUTHERN NEW ENGLAND AND NY CITY SKY/WX TMP DP RH WIND PRES REMARKS BOSTON CLOUDY 59 53 80 S6 29.82F WORCESTER CLOUDY 56 47 71 W3 29.83F NANTUCKET CLOUDY 52 50 93 CALM 29.84F PROVIDENCE CLOUDY 57 54 89 S6 29.84S HARTFORD CLOUDY 59 54 83 CALM 29.81F ALBANY CLOUDY 57 50 77 CALM 29.81F NEW YORK CITY CLOUDY 62 48 60 E3 29.78F $$ ANZ081-ANZ082-ANZ150-NHZ014-MEZ023>029-240500- COASTAL MARINE OBSERVATIONS STATION/POSITION TIME TEMP WIND PRES WAVE AIR SEA DIR/SP/G HT/PER (UTC) (F) (DEG/KT/KT) (MB) (FT/S) MOUNT DESERT ROC 0400 46 1009.3S ISLE OF SHOALS 0300 55 210/ 13/ 13 1009.4F JEFFREYS LEDGE 0306 51 N/A 2/ 5 CASHES LEDGE BUO 0350 49 49 1009.5F 2/ 6 GEORGES BANK BUO 0350 47 46 1010.1R 5/ 7 $$ .............KEY.............. WCI - WIND CHILL TC - TEMPERATURE IN CELSIUS VSB - VISIBILITY IN MILES HX - HEAT INDEX FAIR- INDICATES FEW OR NO CLOUDS BELOW 12,000 FT, WITH NO SIGNIFICANT WEATHER AND/OR OBSTRUCTIONS TO VISIBILITY.

USA.gov is the U.S. government's official web portal to all federal, state and local government web resources and services.